Погода в Китае

Узбекистан     41°59′24″N   60°11′47″E
темп.,
°C
ветер,
м/с
пор.,
м/с
влажн.,
%
обл.,
%
осадки,
мм/ч
давл.,
гПа
погр.,
м
3 марта, ср
ср323:00+3вюв336287 0.0 102889
02:00+3юв346590 0.0 1027128
05:00+2юв346895 0.0 1026116
08:00+2юв356998 0.0 1025146
11:00+6ююв455195 0.0 1025646
14:00+9ююз444568 0.0 10221273
17:00+11ююз444338 0.0 10201496
20:00+8ю235426 0.0 101938
4 марта, чт
чт423:00+7юв345831 0.0 101946
02:00+7вюв585780 0.0 1017225
05:00+7вюв475991 0.4 1015201
08:00+6з476588 0.0 1016155
11:00+6ссз8107494 0.0 1019622
14:00+10сз784934 0.0 10211140
17:00+10зсз894349 0.0 10231962
20:00+7ссз774783 0.0 1026817
5 марта, пт
пт523:00+3ссз375942 0.0 1029346
02:00+1ссз12660 0.0 103022
05:000вюв23680 0.0 103022
08:000вюв46750 0.0 1030106
11:00+6вюв67530 0.0 1028610
14:00+11юв66400 0.0 10251467
17:00+11вюв663533 0.0 10221624
20:00+9всв61043100 0.0 1020445
6 марта, сб
сб623:00+7всв71249100 0.0 1020386
02:00+6св71150100 0.0 1018339
05:00+5св61152100 0.0 1017290
08:00+5ссв61052100 0.0 1018306
11:00+7ссв6840100 0.1 1020566
14:00+9с6637100 0.0 1019976
17:00+9с5632100 0.0 10191245
20:00+6с3639100 0.0 1020191
7 марта, вс
вс723:00+4св335070 0.0 102159
02:00+2вюв12610 0.0 102022
05:00+2ююв33610 0.0 101928
08:00+2юв44610 0.0 101980
11:00+8ююв56370 0.0 1018616
14:00+12ююв562599 0.0 10161185
17:00+12ююв4624100 0.0 10141267
20:00+10ююв3331100 0.0 101447